Location: Perryvale
(54.4667°N, 113.3833°W)
Time: 11:28:29
(UTC+00:00)

deb Explorer IX - Visible Passes

Search period start: 19 May 2024 00:00
Search period end: 29 May 2024 00:00
Orbit: 513 x 892 km, 38.7° (Epoch: 19 May)

Date Brightness Start Highest point End Pass type
(mag) Time Alt. Az. Time Alt. Az. Time Alt. Az.
25 May ? 05:03:40 10° S 05:04:32 10° S 05:05:22 10° SSE visible
26 May ? 05:45:52 10° SSW 05:47:10 11° S 05:47:10 11° S visible
27 May ? 04:45:16 10° SSW 04:47:11 12° S 04:49:03 10° SSE visible
28 May ? 05:28:14 10° SSW 05:29:50 11° S 05:31:00 11° S visible
